Погода в Ильинской

Россия / Чеченская Республика     43°21′45″N   45°56′51″E
темп.,
°C
ветер,
м/с
пор.,
м/с
влажн.,
%
обл.,
%
осадки,
мм/ч
давл.,
гПа
погр.,
м
26 января, вт
вт2600:00+1юз00790 0.0 101822
03:000зсз11800 0.0 101722
06:000юз018080 0.0 101822
09:00+3зсз016790 0.0 101929
12:00+6сз2255100 0.0 1019314
15:00+7зсз235097 0.0 1020477
18:00+4вюв116010 0.0 102222
21:00+3в22695 0.0 102122
27 января, ср
ср2700:00+2в11720 0.0 102122
03:00+1зсз017617 0.0 102022
06:000св11780 0.0 101822
09:00+2с11699 0.0 101740
12:00+7ссв125536 0.0 1014306
15:00+8з114927 0.0 1012366
18:00+5юз116360 0.0 101222
21:00+4зюз116680 0.0 101022
28 января, чт
чт2800:00+3юз1173100 0.0 100922
03:00+2зюз228371 0.0 100822
06:00+2юз11814 0.0 100822
09:00+4зсз117221 0.0 100739
12:00+8ссв2253100 0.0 1005229
15:00+9с1251100 0.0 1003312
18:00+6з346692 0.0 1005102
21:00+6зюз4117185 0.0 1006344
29 января, пт
пт2900:00+6зюз6127344 0.0 1007371
03:00+7зюз467449 0.0 1009164
06:00+6з388298 0.1 1011340
09:00+5зюз478599 1.6 1013468
12:00+8ссз226066 0.0 1012850
15:00+8св345376 0.0 10121111
18:00+7св3655100 0.0 1014467
21:00+5св377788 0.0 1014314
30 января, сб
сб3000:00+4всв369266 0.0 1014300
03:00+4юв139174 0.0 1013181
06:00+3ю118976 0.0 101224
09:00+4з117861 0.0 1011110
12:00+8сз226426 0.0 1010512
15:00+9св126161 0.0 1009658
18:00+6всв357944 0.0 1010140
21:00+4всв239424 0.0 101075